Tracking 28790 objects as of 19-Apr-2024
HD Live streaming from Space Station
objects crossing your sky now

FENGYUN 1C DEB

Track FENGYUN 1C DEB now!
10-day predictions


NORAD ID: 33698
Int'l Code: 1999-025DGK
Perigee: 622.6 km
Apogee: 828.9 km
Inclination: 99.6 °
Period: 99.2 minutes
Semi major axis: 7096 km
RCS: 0.0004 m2 (small)
Launch date: May 10, 1999
Source: People's Republic of China (PRC)
Launch site: Taiyaun Space Center, China (TSC)

Note: This is SATELLITE DEBRIS
Your satellite tracking list
Your tracking list is empty




NASA's NSSDC Master Catalog

Two Line Element Set (TLE):
1 33698U 99025DGK 24106.84667407  .00001967  00000-0  43702-3 0  9991
2 33698  99.6308 331.8623 0145302 212.2904 146.9330 14.52159124868313
Source of the keplerian elements: AFSPC